EA1BIS-13 Weather Reports


time (UTC)temp
C
wind
direction
speed
KPH
gust
KPH
rain 1hr
cm
rain 24hr
cm
rain mn
cm
humidity
%
barometer
mb
20260506204438 10 57 3.2 12.9 0.00 0.00 0.00 75 1012.7
20260506202929 10 121 3.2 12.9 0.00 0.00 0.00 74 1012.6
20260506201425 10 68 3.2 9.7 0.00 0.00 0.00 73 1012.5
20260506195916 10 51 3.2 9.7 0.00 0.00 0.00 72 1012.4
20260506194435 10 91 1.6 9.7 0.00 0.00 0.00 72 1012.2
20260506192927 10 52 1.6 14.5 0.00 0.00 0.00 71 1012.1
20260506191419 11 52 0.0 9.7 0.00 0.00 0.00 70 1011.9
20260506185932 11 356 3.2 12.9 0.00 0.00 0.00 69 1011.7
20260506184423 11 58 1.6 11.3 0.00 0.00 0.00 68 1011.7
20260506182934 12 107 6.4 12.9 0.00 0.00 0.00 65 1011.7
20260506181426 12 60 4.8 11.3 0.00 0.00 0.00 62 1011.6
20260506175956 13 142 0.0 3.2 0.00 0.00 0.00 59 1011.6
20260506174427 13 143 0.0 1.6 0.00 0.00 0.00 60 1011.7
20260506172918 14 139 0.0 0.0 0.00 0.00 0.00 58 1011.7
20260506171447 14 138 0.0 1.6 0.00 0.00 0.00 55 1011.7
20260506165956 15 141 0.0 0.0 0.00 0.00 0.00 54 1011.7
20260506164426 15 122 0.0 0.0 0.00 0.00 0.00 53 1011.7
20260506162917 14 143 0.0 3.2 0.00 0.00 0.00 51 1011.7
20260506161428 15 199 0.0 1.6 0.00 0.00 0.00 51 1011.7
20260506155920 15 198 0.0 1.6 0.00 0.00 0.00 48 1011.8
20260506154431 15 211 3.2 11.3 0.00 0.00 0.00 47 1011.8
20260506152921 15 231 0.0 3.2 0.00 0.00 0.00 47 1011.9
20260506151432 15 222 1.6 9.7 0.00 0.00 0.00 45 1012.1
20260506145925 15 248 1.6 6.4 0.00 0.00 0.00 47 1012.2
20260506144416 14 240 0.0 4.8 0.00 0.00 0.00 48 1012.2
20260506142927 14 238 1.6 9.7 0.00 0.00 0.00 49 1012.4
20260506141417 16 211 3.2 6.4 0.00 0.00 0.00 45 1012.5
20260506135929 16 221 4.8 11.3 0.00 0.20 0.00 43 1012.5
20260506134421 16 208 1.6 8.0 0.00 0.20 0.00 46 1012.8
20260506132951 16 187 4.8 9.7 0.00 0.20 0.00 42 1012.8
20260506131420 16 134 0.0 8.0 0.00 0.20 0.00 48 1012.9
20260506125932 16 333 0.0 4.8 0.00 0.20 0.00 39 1012.9
20260506124422 16 110 0.0 3.2 0.00 0.20 0.00 45 1013.2
20260506122933 15 34 1.6 3.2 0.00 0.20 0.00 46 1013.3
20260506121425 15 229 1.6 9.7 0.00 0.20 0.00 52 1013.4
20260506115916 14 46 0.0 3.2 0.00 0.20 0.00 50 1013.6
20260506114429 13 276 0.0 3.2 0.00 0.20 0.00 53 1013.7
20260506112925 12 18 0.0 6.4 0.00 0.20 0.00 54 1013.8
20260506111417 12 122 1.6 4.8 0.00 0.20 0.00 54 1013.9
20260506105928 12 58 1.6 3.2 0.00 0.20 0.00 54 1014.0
20260506104421 12 135 1.6 8.0 0.00 0.20 0.00 57 1014.0
20260506102933 12 148 1.6 9.7 0.00 0.20 0.00 56 1014.1
20260506101425 11 163 1.6 6.4 0.00 0.20 0.00 59 1014.1
20260506095916 12 30 1.6 8.0 0.00 0.41 0.00 60 1014.2
20260506094429 11 56 1.6 9.7 0.00 0.41 0.00 60 1014.1
20260506092919 11 47 1.6 11.3 0.00 0.41 0.00 62 1014.2
20260506091451 11 56 1.6 9.7 0.00 0.41 0.00 64 1014.2
20260506085942 10 43 1.6 8.0 0.00 0.41 0.00 64 1014.1
20260506084433 9 84 0.0 9.7 0.00 0.41 0.00 67 1014.1
20260506082925 8 52 0.0 4.8 0.00 0.41 0.00 70 1014.1
20260506081417 8 339 0.0 1.6 0.00 0.41 0.00 76 1014.2
20260506072933 5 245 0.0 0.0 0.00 0.41 0.00 90 1014.3
20260506071422 4 245 0.0 1.6 0.00 0.41 0.00 90 1014.3
20260506061430 3 245 0.0 0.0 0.00 0.41 0.00 94 1014.1
20260506044424 1 245 0.0 0.0 0.00 0.41 0.00 94 1014.2
20260506042936 1 244 0.0 0.0 0.00 0.41 0.00 94 1014.2
20260506041428 1 243 0.0 1.6 0.00 0.41 0.00 93 1014.1
20260506035937 1 245 0.0 0.0 0.00 0.41 0.00 93 1014.3
20260506034427 1 245 0.0 1.6 0.00 0.41 0.00 93 1014.4
20260506032918 1 244 0.0 0.0 0.00 0.41 0.00 94 1014.3
20260506031429 1 244 0.0 0.0 0.00 0.41 0.00 94 1014.4
20260506025919 1 244 0.0 0.0 0.00 0.41 0.00 94 1014.4
20260506024430 1 245 0.0 0.0 0.00 0.41 0.00 94 1014.4
20260506022922 0 245 0.0 1.6 0.00 0.41 0.00 93 1014.3
20260506021431 0 245 0.0 0.0 0.00 0.41 0.00 93 1014.3
20260506015918 0 244 0.0 1.6 0.00 0.41 0.00 93 1014.3
20260506014440 1 245 0.0 0.0 0.00 0.41 0.00 92 1014.4
20260506012927 1 244 0.0 0.0 0.00 0.41 0.00 93 1014.4
20260506011422 1 245 0.0 0.0 0.00 0.41 0.00 92 1014.5
20260506005948 1 245 0.0 1.6 0.00 0.41 0.00 91 1014.6
20260506004419 1 245 0.0 0.0 0.00 0.41 0.00 92 1014.7
20260506002931 1 244 0.0 0.0 0.00 0.41 0.00 92 1014.8
20260506001422 1 245 0.0 0.0 0.00 0.41 0.00 92 1014.9
20260505235932 1 245 0.0 1.6 0.00 0.41 0.08 91 1015.0
20260505234441 2 36 0.0 0.0 0.00 0.41 0.08 91 1015.0
20260505232952 2 36 0.0 1.6 0.00 0.41 0.08 90 1015.0
20260505231423 2 176 0.0 1.6 0.00 0.41 0.08 89 1015.1
20260505225954 3 77 0.0 0.0 0.00 0.41 0.08 88 1015.1
20260505224423 3 78 0.0 0.0 0.00 0.41 0.08 86 1015.1
20260505222935 4 77 0.0 0.0 0.00 0.41 0.08 85 1015.2
20260505221425 5 76 0.0 0.0 0.00 0.41 0.08 82 1015.2
20260505215937 6 76 0.0 3.2 0.00 0.41 0.08 80 1015.3
20260505214428 6 72 0.0 4.8 0.00 0.41 0.08 80 1015.3
20260505212919 5 100 0.0 0.0 0.00 0.41 0.08 84 1015.3
20260505211431 5 238 0.0 1.6 0.00 0.41 0.08 84 1015.3
20260505205923 6 102 0.0 0.0 0.00 0.41 0.08 82 1015.2